Lapse_Rate
6.5 6.5 6.5 6.5 6.5 6.5 6.5 6.5 6.5 6.5 6.5 6.5 6.5 6.5 6.5 5.8 5.5 5.2 3.7 4.2 3.7 2.1 2.3 0.6 -1.0 -2.0 -1.9 -2.3 -1.8 -2.8 -2.1 -3.2 -2.0 -1.5 -0.7 0.3 1.4 1.6 1.7 1.8 2.0 2.1 2.0 2.0
6.5 6.5 6.5 6.5 6.5 6.5 6.5 6.5 6.5 6.5 6.5 6.5 6.5 6.5 6.5 6.5 5.9 4.6 3.8 3.8 4.1 3.2 1.6 0.4 -0.5 -1.9 -2.1 -2.1 -2.3 -1.9 -2.2 -2.2 -2.3 -1.2 -0.5 0.5 1.3 1.7 2.3 2.2 2.1 2.2 2.3 2.4
6.5 6.5 6.5 6.5 6.5 6.5 6.5 6.5 6.5 6.5 6.5 6.5 6.5 6.5 6.5 6.5 6.1 4.6 4.3 4.0 4.0 2.6 1.9 1.4 0.1 -0.7 -1.4 -2.4 -2.7 -1.6 -1.9 -1.5 -1.4 -1.1 0.1 0.6 1.5 1.9 1.5 1.4 1.9 1.7 2.5 2.8
6.5 6.5 6.5 6.5 6.5 6.5 6.5 6.5 6.5 6.5 6.5 6.5 6.5 6.5 6.5 6.5 6.5 6.5 4.5 3.4 2.9 2.4 2.9 1.9 1.6 0.3 -0.6 -0.8 -0.9 -1.2 -0.9 -0.7 0.0 -0.5 0.2 -0.0 0.2 0.6 1.0 1.2 1.3 1.6 1.6 1.7
6.5 6.5 6.5 6.5 6.5 6.5 6.5 6.5 6.5 6.5 6.5 6.5 6.5 6.5 6.5 6.5 6.5 6.5 6.0 3.5 2.8 2.2 1.8 2.0 1.7 1.1 0.5 0.1 -0.9 -1.1 -0.4 -0.3 -0.2 -0.0 -0.2 0.4 0.4 0.6 0.9 0.5 0.8 0.4 0.9 0.9
6.5 6.2 6.5 6.5 6.5 6.5 6.5 6.5 6.5 6.5 6.5 6.5 6.5 6.5 6.5 6.5 6.5 6.5 6.1 3.5 2.9 2.1 2.0 2.1 1.6 1.2 0.4 -0.2 -0.4 -0.5 0.1 -0.3 -0.2 0.1 -0.3 -0.4 -0.5 0.2 0.5 -0.1 0.1 0.2 0.5 0.6
6.5 6.5 6.5 6.3 6.5 6.5 6.5 6.5 6.5 6.5 6.5 6.5 6.5 6.5 6.5 6.5 6.5 6.5 6.5 3.5 2.5 2.0 1.7 1.8 1.8 1.2 0.7 0.2 0.3 0.7 0.3 -0.2 -0.1 -0.1 -0.4 -0.6 -0.6 -0.6 -0.3 -0.1 0.3 0.4 0.7 0.8
6.5 6.5 6.5 6.5 6.5 6.5 6.5 6.5 6.5 6.5 6.5 6.5 6.5 6.5 6.5 6.5 5.5 4.5 3.9 2.5 2.1 1.9 1.5 1.8 1.4 0.8 0.3 0.1 -0.2 -0.1 -0.0 -0.0 -0.2 -0.3 -0.6 -0.7 -0.4 0.1 0.4 0.1 0.3 0.7 1.1 1.3
6.5 6.5 6.5 6.5 6.5 6.5 6.5 6.5 6.5 6.5 6.5 6.5 6.5 6.5 6.5 6.5 6.5 6.2 4.7 3.2 2.5 1.9 1.5 1.7 1.2 0.6 -0.2 -0.3 -0.2 0.1 0.1 -0.1 -0.3 -0.6 -0.5 -1.1 -0.9 -0.7 -0.5 -0.5 -0.3 0.3 0.8 2.7
6.5 6.5 6.5 6.5 6.3 6.5 6.5 6.5 6.5 6.5 6.5 6.5 6.5 6.5 6.5 6.5 6.5 6.5 6.5 4.8 2.8 2.2 1.9 1.7 1.0 0.1 -0.3 -0.2 -0.3 -0.1 -0.2 -0.4 -0.4 -0.5 -0.6 -0.4 -0.6 -0.8 -0.9 -0.6 -0.2 0.4 1.1 1.5
6.5 6.5 6.5 6.5 6.5 6.5 6.5 6.5 6.5 6.5 6.5 6.5 6.5 6.5 6.5 6.5 6.5 6.5 6.4 4.3 2.7 2.2 1.6 1.3 0.6 0.3 -0.2 -0.2 -0.0 -0.1 -0.0 0.1 -0.1 -0.2 -0.3 -0.6 -0.4 -0.3 0.1 0.4 0.4 0.6 0.8 1.2
6.5 6.5 6.5 6.5 6.5 6.5 6.5 6.5 6.5 6.5 6.5 6.5 6.5 6.5 6.5 6.5 6.5 5.8 5.2 4.0 2.7 2.1 1.4 0.6 0.1 -0.0 0.3 0.2 0.2 0.2 0.3 0.3 0.1 0.0 0.0 0.1 0.3 0.1 -0.1 0.1 0.4 0.8 0.6 1.2
6.5 6.5 6.5 6.5 6.5 6.5 6.5 6.5 6.5 6.5 6.5 6.5 6.5 6.5 6.5 6.4 6.4 5.5 4.5 3.5 2.6 1.9 1.1 0.6 0.5 0.7 0.7 0.7 0.8 0.5 0.0 -0.1 0.1 0.4 0.2 0.0 0.1 0.2 0.0 0.4 0.7 1.0 1.1 1.1
5.5 6.5 6.5 6.5 6.5 6.5 6.5 6.5 6.5 6.5 6.5 6.5 6.5 6.5 6.5 6.5 6.5 6.1 4.6 4.0 2.7 1.5 1.3 0.7 0.9 1.0 1.1 1.2 0.6 0.3 0.4 0.5 0.8 0.7 0.5 0.8 0.6 0.5 0.6 0.8 0.9 1.0 1.1 1.1
6.5 6.5 6.5 6.5 6.5 6.5 6.5 6.5 6.5 6.5 6.5 6.5 6.5 6.5 6.5 6.5 6.5 6.3 5.6 4.6 3.3 2.2 1.9 1.7 1.4 0.6 0.8 0.7 0.7 0.5 0.8 0.9 1.1 1.0 1.4 1.3 1.1 1.1 0.9 0.9 0.7 0.8 1.1 1.5
6.5 6.5 6.5 6.5 6.5 6.5 6.5 6.5 6.5 6.5 6.5 6.5 6.5 6.5 6.5 6.2 5.3 5.1 4.8 4.5 4.0 3.2 2.3 1.7 1.2 0.6 0.6 0.8 0.8 1.3 1.3 1.4 1.1 1.5 2.0 1.5 1.2 1.1 1.2 1.0 1.0 1.0 1.2 1.4
6.5 6.5 6.5 6.5 6.5 6.5 6.5 6.5 6.5 6.5 6.5 6.5 6.5 6.5 6.5 6.5 6.4 5.9 4.9 4.0 3.6 1.7 0.9 0.8 0.8 1.3 1.1 1.2 1.4 1.4 1.4 1.9 2.1 1.8 1.0 1.3 1.5 1.3 1.2 1.3 1.2 1.4 1.4 1.2
6.5 6.5 6.5 6.5 6.5 6.5 6.5 6.5 6.5 6.5 6.5 6.5 6.5 6.5 6.4 6.0 5.2 4.5 3.4 2.7 2.0 2.4 0.6 0.7 0.9 1.0 1.2 1.2 1.3 1.5 2.4 2.3 1.5 1.1 0.9 1.3 1.3 1.2 1.4 1.2 1.0 0.8 1.6 2.2
6.5 6.5 6.5 6.5 6.5 6.5 6.5 6.5 6.5 6.5 6.5 6.5 6.5 6.5 6.0 5.3 4.9 5.0 2.5 1.5 1.1 0.5 -0.1 0.8 1.2 1.3 0.8 1.3 2.9 3.4 2.4 1.6 1.5 2.3 1.5 1.1 1.3 1.3 1.6 1.3 1.1 1.7 2.6 3.1
6.5 6.5 6.5 6.5 6.5 6.5 6.5 6.5 6.0 6.5 6.5 6.5 6.1 6.5 6.2 5.4 6.5 6.5 3.8 1.6 0.5 0.1 0.9 1.0 1.1 1.3 2.2 2.2 1.8 1.8 2.0 3.0 3.2 2.3 1.0 1.1 1.6 1.5 1.2 1.4 2.0 2.9 3.3 4.3
6.5 6.5 6.5 6.5 6.5 6.5 6.5 6.4 6.0 6.5 6.5 5.9 5.0 5.0 5.3 6.5 5.1 3.8 1.9 2.0 1.7 1.7 1.6 1.5 2.1 2.1 1.9 2.1 2.4 2.5 3.0 3.4 1.8 1.0 1.1 1.2 1.2 1.3 1.5 2.0 2.6 3.5 3.8 4.1
6.5 6.5 6.5 6.5 6.5 6.5 6.2 6.4 6.5 6.2 5.2 4.3 4.3 4.5 5.0 4.8 4.6 3.4 2.2 1.9 1.7 1.6 2.1 2.3 1.8 2.6 3.2 2.8 2.7 3.5 3.7 1.6 0.9 0.8 0.9 1.0 1.0 1.9 3.6 2.2 2.6 2.9 3.3 3.6
6.5 6.5 6.5 6.5 6.5 6.3 5.7 6.0 3.4 3.6 3.9 4.6 4.9 5.0 5.4 5.2 5.1 4.4 3.1 1.9 2.0 2.4 2.4 2.6 2.8 3.1 2.8 2.9 3.0 2.4 1.7 0.8 0.7 0.3 0.4 0.9 1.5 2.1 2.4 1.9 3.1 3.6 3.9 4.7
6.5 6.2 6.5 6.5 6.5 6.5 5.3 4.4 4.3 5.0 4.8 4.7 4.6 5.2 5.0 5.5 4.6 4.6 3.0 2.2 2.3 2.4 2.6 3.0 3.7 4.3 4.2 3.0 2.0 1.5 0.9 0.6 0.4 0.3 0.8 1.5 1.5 2.8 2.8 3.0 3.5 3.5 4.7 5.6
6.3 6.3 6.5 6.5 6.5 6.1 5.8 5.2 4.5 4.2 4.0 4.1 3.9 4.2 4.1 4.5 4.0 3.6 2.4 2.2 2.4 2.9 3.6 4.0 3.7 3.5 3.2 1.0 0.9 0.9 1.2 1.0 1.4 1.6 2.2 2.0 2.5 1.7 2.7 3.7 4.0 5.0 6.2 7.7
5.8 6.5 6.5 6.5 5.3 5.4 5.0 4.5 4.3 4.3 4.2 2.6 4.2 4.2 2.8 3.3 3.1 3.2 2.7 2.7 3.0 3.4 3.6 3.4 3.1 2.2 1.2 0.5 0.6 1.0 1.5 1.9 1.8 2.4 3.1 3.2 3.6 3.0 4.4 4.6 4.8 7.0 8.5 9.4
Wind_Speed
14 6 13 15 13 3 6 4 5 4 4 3 7 8 15 8 5 5 5 4 3 6 3 5 7 8 9 9 8 8 11 9 5 4 3 2 2 1 1 2 5 6 6 6
8 17 15 7 7 4 3 4 4 7 1 3 8 10 12 8 6 4 8 6 4 4 6 7 7 9 8 5 8 11 11 11 7 3 2 2 2 3 3 4 7 11 9 8
5 10 14 11 6 10 3 5 3 6 7 4 6 8 6 3 1 5 5 5 4 6 6 5 7 6 7 9 9 10 9 11 10 8 4 4 4 4 4 5 5 6 9 11
7 5 16 13 13 7 8 7 3 3 4 4 5 6 6 6 4 5 6 6 6 7 3 5 5 7 7 6 7 8 9 10 10 9 9 10 5 4 3 2 3 5 9 9
5 11 13 17 16 10 4 6 6 3 3 2 1 2 7 2 5 6 7 7 6 6 6 6 6 6 5 6 6 7 9 11 9 10 8 6 7 3 2 3 7 7 7 7
3 5 10 7 6 9 5 4 4 3 2 2 6 7 5 4 6 4 4 7 8 7 6 5 5 6 6 6 7 7 10 9 9 10 9 10 9 7 7 8 7 6 5 5
1 3 2 6 7 3 4 4 0 1 1 5 1 2 8 5 5 8 13 10 8 7 7 6 7 6 6 7 6 7 8 8 7 9 10 10 8 8 8 7 6 8 7 7
8 6 6 4 5 6 6 7 5 6 4 4 3 6 6 2 6 7 9 11 8 8 7 7 7 6 7 7 7 7 8 8 8 8 9 7 8 5 5 6 5 5 5 5
12 5 4 5 6 11 5 8 4 4 2 1 3 7 9 4 6 3 9 12 10 8 7 7 6 6 7 7 7 7 7 7 7 7 6 7 7 7 6 6 4 5 5 8
6 4 1 3 6 2 7 8 2 2 3 4 4 5 5 6 4 2 7 10 8 7 7 6 6 6 6 6 6 7 7 7 6 7 6 6 6 6 6 6 7 7 6 7
6 4 3 5 6 8 3 3 4 4 4 4 1 5 5 6 5 8 6 6 8 8 7 7 6 6 6 6 6 6 7 7 7 6 5 6 8 7 6 5 5 6 6 7
3 6 5 4 1 5 5 7 6 4 4 1 3 6 2 6 6 6 8 7 6 6 7 7 7 7 6 6 6 6 6 6 6 6 7 6 5 6 6 6 6 6 6 7
7 2 5 3 1 3 4 4 4 5 3 7 6 5 3 7 6 4 8 7 8 7 7 6 6 6 6 5 5 5 6 6 6 5 5 6 6 6 6 7 7 8 8 9
7 3 6 9 5 7 5 5 5 6 4 5 6 5 4 5 3 4 5 4 5 6 7 6 6 6 5 5 5 6 6 5 5 5 6 6 6 6 6 6 7 7 7 7
4 4 3 3 3 5 7 9 10 9 7 7 5 8 5 3 2 2 1 3 4 6 7 7 7 6 5 6 5 5 5 5 4 5 5 5 5 5 6 6 6 6 6 8
2 2 3 2 3 2 3 4 8 5 4 3 5 5 4 2 4 4 3 3 4 6 7 7 7 7 6 6 5 4 3 3 4 4 4 5 5 6 6 6 8 8 8 9
6 5 3 3 1 3 4 8 7 5 4 7 7 7 5 3 6 3 3 3 1 4 6 8 7 6 6 5 4 3 3 2 2 3 4 5 6 6 7 7 8 9 9 9
5 4 2 3 1 1 3 1 6 6 2 4 5 5 4 6 3 2 2 3 6 1 6 7 6 6 6 4 3 3 2 2 4 5 5 5 5 6 7 7 7 7 7 8
3 4 3 4 4 3 0 4 6 5 1 1 7 6 5 3 3 4 3 3 3 4 6 6 6 5 5 5 3 3 3 4 5 4 5 5 6 6 6 7 8 8 8 9
4 6 3 2 3 7 1 3 4 4 2 5 7 5 5 3 2 3 3 3 4 5 5 7 6 5 6 3 3 4 3 4 4 5 6 6 6 6 7 7 8 6 7 11
3 3 4 2 2 6 3 3 1 5 4 4 5 6 5 4 4 1 4 3 4 4 7 6 6 5 4 3 3 3 3 3 5 5 5 5 6 6 7 6 6 8 10 9
5 6 4 3 2 6 2 4 5 4 3 6 5 4 3 3 3 4 6 6 6 7 6 5 5 4 3 3 3 1 3 4 5 5 5 6 6 6 7 7 8 8 8 9
2 4 4 6 4 1 2 2 4 4 6 4 4 4 4 4 2 3 2 5 5 6 5 4 5 4 3 3 3 3 4 5 5 5 6 6 8 6 7 6 9 7 8 8
1 2 2 3 2 2 4 4 4 4 5 4 3 3 3 4 4 3 3 4 5 5 4 3 4 3 2 2 1 3 5 5 6 6 7 7 6 9 5 5 6 5 7 8
3 5 4 0 2 2 1 2 5 5 5 6 5 3 4 3 3 2 3 5 5 5 4 4 3 2 1 2 4 5 5 5 5 6 7 7 6 6 7 6 6 7 7 9
4 5 5 5 6 4 4 5 4 6 5 5 3 2 3 2 3 3 4 4 5 5 4 4 3 1 3 5 5 6 5 5 5 6 6 6 6 5 7 8 9 13 17 21
Wind_Direction
190 187 190 188 193 140 153 167 220 254 254 262 273 274 278 275 262 251 192 140 91 73 32 30 27 22 22 23 19 18 32 15 58 68 77 59 293 330 344 317 298 290 284 279
182 203 198 146 148 153 147 170 248 286 215 189 303 284 273 266 261 188 168 165 154 102 58 37 30 31 26 27 29 36 35 34 36 59 66 97 82 59 57 27 34 27 31 23
197 201 155 158 148 185 191 190 223 235 338 307 322 290 309 321 120 107 122 139 139 127 112 89 60 44 28 35 29 41 33 40 37 32 44 45 46 37 25 21 29 20 33 36
245 171 168 163 186 153 223 194 161 274 23 261 38 286 292 273 208 157 144 144 155 141 143 110 94 63 49 32 37 46 46 43 39 31 58 64 61 64 16 6 0 18 23 25
136 166 163 177 197 171 217 147 190 211 208 350 274 297 270 190 218 206 187 171 186 169 147 130 107 93 70 57 55 52 58 50 41 51 54 66 64 51 17 14 24 17 12 16
190 149 155 168 165 171 154 88 66 56 96 294 227 185 275 217 211 155 171 181 187 170 160 134 109 105 83 63 58 53 66 48 43 53 48 57 55 39 36 21 20 7 4 2
228 117 190 132 130 51 99 153 246 316 293 231 74 159 251 243 228 190 183 185 184 178 167 150 128 107 90 83 70 68 66 57 47 56 51 44 45 43 38 21 14 7 3 1
163 194 194 188 171 157 178 173 163 198 202 259 115 236 251 251 287 251 174 160 158 177 176 163 139 122 112 102 82 71 65 62 47 52 50 45 42 42 34 23 12 6 356 339
183 217 172 174 123 147 192 201 195 100 20 40 236 288 309 356 15 85 152 151 173 177 174 160 132 123 117 94 81 83 78 66 54 51 57 46 39 35 23 10 4 0 353 352
178 108 184 119 95 71 171 159 127 5 229 247 287 279 244 338 345 145 171 166 165 164 169 149 133 126 101 94 89 74 69 70 58 53 46 45 32 25 17 13 8 355 343 341
132 104 144 171 189 158 177 169 55 125 137 178 305 272 215 274 293 218 194 174 161 173 177 155 133 117 107 98 81 73 62 58 47 46 43 38 26 19 7 4 354 350 337 335
190 123 145 190 250 181 165 172 154 145 214 129 147 275 358 288 290 181 161 161 170 186 177 149 137 128 114 95 77 69 60 58 45 42 41 32 18 7 7 355 341 335 335 338
177 116 107 105 10 319 193 179 128 115 98 188 153 262 357 35 69 119 141 167 192 180 150 135 130 129 114 96 83 68 55 49 45 51 46 31 16 4 355 344 346 348 342 339
95 138 158 191 192 147 183 181 163 140 152 174 218 273 1 40 102 163 189 195 184 172 160 146 133 123 112 98 84 68 57 46 42 40 34 22 9 357 343 329 334 334 332 324
137 145 139 38 150 146 179 175 178 194 195 187 215 209 219 174 206 170 96 174 162 184 158 148 142 134 127 102 88 75 59 44 41 41 22 4 348 336 335 325 324 318 322 330
96 157 117 77 66 142 199 186 185 200 161 229 147 233 223 112 89 42 32 77 153 175 165 155 139 141 125 115 106 92 75 52 51 40 17 349 349 338 321 324 332 334 332 325
154 141 119 179 103 117 294 215 184 185 181 152 194 210 153 88 110 73 36 15 273 203 166 149 147 144 134 132 136 120 90 35 32 36 17 357 339 326 330 331 330 327 324 318
129 101 81 133 105 194 232 233 172 133 127 160 106 113 130 143 117 45 34 346 329 200 145 139 141 128 135 130 104 117 80 35 28 13 1 335 326 328 324 318 312 314 320 319
41 125 104 143 195 295 19 180 152 156 182 140 128 119 108 100 67 1 33 31 327 146 146 143 141 139 121 116 119 93 40 16 17 349 329 333 333 324 312 317 320 317 314 318
59 66 104 102 147 210 213 134 129 128 227 180 134 130 131 111 89 254 350 34 53 101 116 126 121 119 121 110 107 79 31 355 343 336 327 325 309 304 322 307 308 301 306 308
69 41 122 114 238 288 240 152 188 121 211 139 130 135 134 157 191 138 105 94 123 120 117 118 117 122 131 124 69 44 345 332 328 320 314 307 320 313 291 297 296 306 306 300
154 136 173 117 169 272 156 68 163 166 75 126 121 143 161 186 168 144 157 149 136 130 126 120 117 119 99 70 62 1 318 313 314 319 317 312 306 309 306 294 299 296 295 300
191 168 180 176 218 311 2 139 102 119 130 166 159 170 150 135 87 68 107 151 159 153 130 110 110 117 128 101 58 336 304 322 321 328 323 312 301 289 289 293 299 305 306 311
250 151 143 119 213 114 95 78 106 121 123 119 81 108 119 111 72 53 107 151 151 146 142 130 142 138 102 58 329 283 314 330 339 319 302 295 291 304 292 284 290 292 306 301
186 135 152 190 109 85 262 135 138 108 90 88 71 69 86 83 79 95 145 157 161 158 147 130 112 109 291 322 340 330 326 330 313 295 286 282 285 281 299 297 290 299 292 296
188 179 166 213 182 151 176 156 109 97 87 69 77 89 79 98 145 136 149 157 149 150 133 121 121 58 338 342 322 321 324 312 293 292 300 304 307 302 309 305 304 299 303 311